Tracking 35331 objects as of 16-Sep-2026
HD Live streaming from Space Station
objects crossing your sky now

VIZARD-METEO

Track VIZARD-METEO now!
10-day predictions
VIZARD-METEO is classified as:


NORAD ID: 57189
Int'l Code: 2023-091Z
Launch date: June 27, 2023
Source: (TBD)
Launch site: VOSTOCHNY COSMODROME (VOSTO)

Uplink (MHz):
Downlink (MHz): 437.825
Beacon (MHz):
Mode: 2k4/4k8/9k6* GMSK_USP
Call sign: RS38S
Status: Active

Your satellite tracking list
Your tracking list is empty




NASA's NSSDC Master Catalog

Two Line Element Set (TLE):
1 57189U 23091Z   26259.27185753  .00017993  00000-0  47231-3 0  9996
2 57189  97.5001 330.7169 0008082 104.4438 255.7705 15.38662398178687
Source of the keplerian elements: AFSPC